| time (UTC) | temp F | wind direction | speed MPH | gust MPH | rain 1hr in | rain 24hr in | rain mn in | humidity % | barometer mb |
| 20260905232703 | 74 | 120 | 0.0 | 0.0 | 0.00 | 0.10 | 0.00 | 82 | 1015.8 |
| 20260905232203 | 75 | 120 | 0.0 | 0.0 | 0.00 | 0.10 | 0.00 | 81 | 1015.7 |
| 20260905231704 | 75 | 120 | 0.0 | 0.0 | 0.00 | 0.10 | 0.00 | 80 | 1015.6 |
| 20260905231204 | 75 | 120 | 0.0 | 0.0 | 0.00 | 0.10 | 0.00 | 80 | 1015.5 |
| 20260905230704 | 76 | 120 | 0.0 | 0.0 | 0.00 | 0.10 | 0.00 | 79 | 1015.5 |
| 20260905230204 | 76 | 120 | 0.0 | 0.0 | 0.00 | 0.10 | 0.00 | 78 | 1015.5 |
| 20260905225704 | 77 | 120 | 0.0 | 0.0 | 0.00 | 0.10 | 0.00 | 77 | 1015.4 |
| 20260905225203 | 77 | 120 | 0.0 | 0.0 | 0.00 | 0.10 | 0.00 | 78 | 1015.4 |
| 20260905224704 | 77 | 120 | 0.0 | 0.0 | 0.00 | 0.10 | 0.00 | 78 | 1015.3 |
| 20260905224204 | 78 | 120 | 0.0 | 0.0 | 0.00 | 0.10 | 0.00 | 76 | 1015.2 |
| 20260905223704 | 78 | 120 | 0.0 | 0.0 | 0.00 | 0.10 | 0.00 | 76 | 1015.2 |
| 20260905223203 | 78 | 120 | 0.0 | 0.0 | 0.00 | 0.10 | 0.00 | 76 | 1015.1 |
| 20260905222703 | 78 | 120 | 0.0 | 0.0 | 0.00 | 0.10 | 0.00 | 75 | 1015.1 |
| 20260905222204 | 79 | 120 | 0.0 | 0.0 | 0.00 | 0.10 | 0.00 | 73 | 1015.1 |
| 20260905221703 | 79 | 120 | 0.0 | 0.0 | 0.00 | 0.10 | 0.00 | 73 | 1015.1 |
| 20260905215704 | 80 | 120 | 0.0 | 0.0 | 0.00 | 0.10 | 0.00 | 73 | 1015.0 |
| 20260905215204 | 80 | 120 | 0.0 | 0.0 | 0.00 | 0.10 | 0.00 | 71 | 1014.9 |
| 20260905214704 | 81 | 120 | 0.0 | 0.0 | 0.00 | 0.10 | 0.00 | 70 | 1014.9 |
| 20260905214203 | 81 | 120 | 0.0 | 0.0 | 0.00 | 0.10 | 0.00 | 71 | 1014.9 |
| 20260905213704 | 81 | 120 | 0.0 | 0.0 | 0.00 | 0.10 | 0.00 | 70 | 1014.8 |
| 20260905213204 | 81 | 120 | 0.0 | 0.0 | 0.00 | 0.10 | 0.00 | 72 | 1014.8 |
| 20260905212703 | 81 | 120 | 0.0 | 0.0 | 0.00 | 0.10 | 0.00 | 71 | 1014.7 |
| 20260905212204 | 81 | 120 | 0.0 | 0.0 | 0.00 | 0.10 | 0.00 | 71 | 1014.6 |
| 20260905211704 | 82 | 120 | 0.0 | 0.0 | 0.00 | 0.10 | 0.00 | 69 | 1014.5 |
| 20260905211203 | 83 | 120 | 0.0 | 0.0 | 0.00 | 0.10 | 0.00 | 68 | 1014.6 |
| 20260905210703 | 83 | 120 | 0.0 | 0.0 | 0.00 | 0.10 | 0.00 | 66 | 1014.5 |
| 20260905210204 | 83 | 120 | 0.0 | 0.0 | 0.00 | 0.10 | 0.00 | 66 | 1014.6 |
| 20260905205704 | 83 | 120 | 0.0 | 0.0 | 0.00 | 0.10 | 0.00 | 66 | 1014.5 |
| 20260905204704 | 84 | 120 | 0.0 | 0.0 | 0.00 | 0.10 | 0.00 | 66 | 1014.6 |
| 20260905204203 | 83 | 120 | 0.0 | 0.0 | 0.00 | 0.10 | 0.00 | 67 | 1014.5 |
| 20260905203703 | 83 | 120 | 0.0 | 0.0 | 0.00 | 0.10 | 0.00 | 66 | 1014.7 |
| 20260905203204 | 83 | 120 | 0.0 | 0.0 | 0.00 | 0.10 | 0.00 | 67 | 1014.7 |
| 20260905202204 | 83 | 120 | 0.0 | 0.0 | 0.00 | 0.10 | 0.00 | 66 | 1014.5 |
| 20260905201703 | 83 | 120 | 0.0 | 0.0 | 0.00 | 0.10 | 0.00 | 67 | 1014.5 |
| 20260905201203 | 83 | 120 | 0.0 | 0.0 | 0.00 | 0.10 | 0.00 | 67 | 1014.6 |
| 20260905200704 | 83 | 120 | 0.0 | 0.0 | 0.00 | 0.10 | 0.00 | 67 | 1014.7 |
| 20260905200203 | 82 | 120 | 0.0 | 0.0 | 0.00 | 0.10 | 0.00 | 68 | 1014.6 |
| 20260905195703 | 82 | 120 | 0.0 | 0.0 | 0.00 | 0.10 | 0.00 | 69 | 1014.7 |
| 20260905195204 | 83 | 120 | 0.0 | 0.0 | 0.00 | 0.10 | 0.00 | 70 | 1014.7 |
| 20260905194704 | 82 | 120 | 0.0 | 0.0 | 0.00 | 0.10 | 0.00 | 74 | 1014.7 |
| 20260905194204 | 81 | 120 | 0.0 | 0.0 | 0.00 | 0.10 | 0.00 | 75 | 1014.9 |
| 20260905193704 | 81 | 120 | 0.0 | 0.0 | 0.00 | 0.10 | 0.00 | 74 | 1015.0 |
| 20260905193203 | 81 | 120 | 0.0 | 0.0 | 0.00 | 0.10 | 0.00 | 75 | 1015.0 |
| 20260905192204 | 80 | 120 | 0.0 | 0.0 | 0.00 | 0.10 | 0.00 | 75 | 1015.1 |
| 20260905191704 | 80 | 120 | 0.0 | 0.0 | 0.00 | 0.10 | 0.00 | 77 | 1015.1 |
| 20260905191203 | 79 | 120 | 0.0 | 0.0 | 0.00 | 0.10 | 0.00 | 77 | 1015.1 |
| 20260905190703 | 79 | 120 | 0.0 | 0.0 | 0.00 | 0.10 | 0.00 | 77 | 1015.2 |
| 20260905190204 | 78 | 120 | 0.0 | 0.0 | 0.00 | 0.10 | 0.00 | 78 | 1015.2 |
| 20260905185704 | 78 | 120 | 0.0 | 0.0 | 0.00 | 0.10 | 0.00 | 79 | 1015.2 |
| 20260905184704 | 78 | 120 | 0.0 | 0.0 | 0.00 | 0.10 | 0.00 | 81 | 1015.3 |
| 20260905183704 | 78 | 120 | 0.0 | 0.0 | 0.00 | 0.10 | 0.00 | 81 | 1015.5 |
| 20260905183204 | 78 | 120 | 0.0 | 0.0 | 0.00 | 0.10 | 0.00 | 80 | 1015.4 |
| 20260905182704 | 78 | 120 | 0.0 | 0.0 | 0.00 | 0.10 | 0.00 | 80 | 1015.3 |
| 20260905181703 | 78 | 120 | 0.0 | 0.0 | 0.00 | 0.10 | 0.00 | 80 | 1015.4 |
| 20260905181203 | 78 | 120 | 0.0 | 0.0 | 0.00 | 0.10 | 0.00 | 80 | 1015.3 |
| 20260905180204 | 78 | 120 | 0.0 | 0.0 | 0.00 | 0.10 | 0.00 | 82 | 1015.3 |
| 20260905175203 | 77 | 120 | 0.0 | 0.0 | 0.00 | 0.10 | 0.00 | 83 | 1015.2 |
| 20260905174703 | 77 | 120 | 0.0 | 0.0 | 0.00 | 0.10 | 0.00 | 82 | 1015.2 |
| 20260905173704 | 77 | 120 | 0.0 | 0.0 | 0.00 | 0.10 | 0.00 | 83 | 1015.2 |
| 20260905173204 | 77 | 120 | 0.0 | 0.0 | 0.00 | 0.10 | 0.00 | 83 | 1015.2 |
| 20260905172704 | 77 | 120 | 0.0 | 0.0 | 0.00 | 0.10 | 0.00 | 83 | 1015.3 |
| 20260905172204 | 77 | 120 | 0.0 | 0.0 | 0.00 | 0.10 | 0.00 | 83 | 1015.3 |
| 20260905171703 | 77 | 120 | 0.0 | 0.0 | 0.00 | 0.10 | 0.00 | 84 | 1015.3 |
| 20260905171203 | 77 | 120 | 0.0 | 0.0 | 0.00 | 0.10 | 0.00 | 84 | 1015.3 |
| 20260905170704 | 77 | 120 | 0.0 | 0.0 | 0.00 | 0.10 | 0.00 | 84 | 1015.4 |
| 20260905170203 | 77 | 120 | 0.0 | 0.0 | 0.00 | 0.10 | 0.00 | 84 | 1015.5 |
| 20260905165704 | 77 | 120 | 0.0 | 0.0 | 0.00 | 0.14 | 0.00 | 84 | 1015.4 |
| 20260905165204 | 77 | 120 | 0.0 | 0.0 | 0.00 | 0.14 | 0.00 | 84 | 1015.5 |
| 20260905164705 | 77 | 120 | 0.0 | 0.0 | 0.00 | 0.15 | 0.00 | 84 | 1015.6 |
| 20260905163704 | 77 | 120 | 0.0 | 0.0 | 0.00 | 0.15 | 0.00 | 84 | 1015.6 |
| 20260905163204 | 77 | 120 | 0.0 | 0.0 | 0.00 | 0.15 | 0.00 | 85 | 1015.5 |
| 20260905162704 | 77 | 120 | 0.0 | 0.0 | 0.00 | 0.15 | 0.00 | 84 | 1015.4 |
| 20260905162203 | 77 | 120 | 0.0 | 0.0 | 0.00 | 0.15 | 0.00 | 84 | 1015.4 |
| 20260905161703 | 77 | 120 | 0.0 | 0.0 | 0.00 | 0.15 | 0.00 | 84 | 1015.4 |
| 20260905160703 | 77 | 120 | 0.0 | 0.0 | 0.00 | 0.15 | 0.00 | 83 | 1015.5 |
| 20260905160204 | 77 | 120 | 0.0 | 0.0 | 0.00 | 0.15 | 0.00 | 84 | 1015.4 |
| 20260905155704 | 77 | 120 | 0.0 | 0.0 | 0.00 | 0.15 | 0.00 | 84 | 1015.4 |
| 20260905155204 | 77 | 120 | 0.0 | 0.0 | 0.00 | 0.15 | 0.00 | 84 | 1015.3 |
| 20260905154704 | 77 | 120 | 0.0 | 0.0 | 0.00 | 0.15 | 0.00 | 84 | 1015.2 |
| 20260905154204 | 77 | 120 | 0.0 | 0.0 | 0.00 | 0.15 | 0.00 | 84 | 1015.2 |
| 20260905153703 | 77 | 120 | 0.0 | 0.0 | 0.00 | 0.15 | 0.00 | 84 | 1015.1 |
| 20260905153204 | 77 | 120 | 0.0 | 0.0 | 0.00 | 0.15 | 0.00 | 84 | 1015.1 |
| 20260905152704 | 77 | 120 | 0.0 | 0.0 | 0.00 | 0.15 | 0.00 | 84 | 1015.0 |
| 20260905152204 | 77 | 120 | 0.0 | 0.0 | 0.00 | 0.15 | 0.00 | 84 | 1015.0 |
| 20260905151704 | 78 | 120 | 0.0 | 0.0 | 0.00 | 0.15 | 0.00 | 85 | 1015.0 |
| 20260905150704 | 78 | 120 | 0.0 | 0.0 | 0.00 | 0.15 | 0.00 | 84 | 1014.8 |
| 20260905145704 | 78 | 120 | 0.0 | 0.0 | 0.00 | 0.15 | 0.00 | 85 | 1014.7 |
| 20260905145204 | 78 | 120 | 0.0 | 0.0 | 0.00 | 0.15 | 0.00 | 85 | 1014.8 |
| 20260905144704 | 77 | 120 | 0.0 | 0.0 | 0.00 | 0.15 | 0.00 | 85 | 1014.8 |
| 20260905144204 | 77 | 120 | 0.0 | 0.0 | 0.00 | 0.15 | 0.00 | 86 | 1014.7 |
| 20260905143704 | 77 | 120 | 0.0 | 0.0 | 0.00 | 0.15 | 0.00 | 88 | 1014.7 |
| 20260905143204 | 77 | 120 | 0.0 | 0.0 | 0.00 | 0.15 | 0.00 | 89 | 1014.6 |
| 20260905142705 | 76 | 120 | 0.0 | 0.0 | 0.00 | 0.15 | 0.00 | 90 | 1014.6 |
| 20260905142204 | 76 | 120 | 0.0 | 0.0 | 0.00 | 0.15 | 0.00 | 91 | 1014.6 |
| 20260905141703 | 75 | 120 | 0.0 | 0.0 | 0.00 | 0.15 | 0.00 | 91 | 1014.7 |
| 20260905141203 | 75 | 120 | 0.0 | 0.0 | 0.00 | 0.15 | 0.00 | 91 | 1014.7 |
| 20260905140705 | 75 | 120 | 0.0 | 0.0 | 0.00 | 0.15 | 0.00 | 92 | 1014.6 |
| 20260905140204 | 75 | 120 | 0.0 | 0.0 | 0.00 | 0.15 | 0.00 | 92 | 1014.6 |
| 20260905135703 | 75 | 120 | 0.0 | 0.0 | 0.00 | 0.15 | 0.00 | 92 | 1014.5 |
| 20260905135204 | 75 | 120 | 0.0 | 0.0 | 0.00 | 0.15 | 0.00 | 92 | 1014.6 |
| 20260905134703 | 75 | 120 | 0.0 | 0.0 | 0.00 | 0.15 | 0.00 | 92 | 1014.5 |
| 20260905134203 | 75 | 120 | 0.0 | 0.0 | 0.00 | 0.15 | 0.00 | 93 | 1014.4 |
| 20260905133703 | 75 | 120 | 0.0 | 0.0 | 0.00 | 0.15 | 0.00 | 93 | 1014.4 |
| 20260905133203 | 75 | 120 | 0.0 | 0.0 | 0.00 | 0.15 | 0.00 | 93 | 1014.5 |
| 20260905132704 | 75 | 120 | 0.0 | 0.0 | 0.00 | 0.15 | 0.00 | 94 | 1014.6 |
| 20260905132204 | 74 | 120 | 0.0 | 0.0 | 0.00 | 0.15 | 0.00 | 94 | 1014.7 |
| 20260905131704 | 74 | 120 | 0.0 | 0.0 | 0.00 | 0.15 | 0.00 | 94 | 1014.9 |
| 20260905131204 | 74 | 120 | 0.0 | 0.0 | 0.00 | 0.15 | 0.00 | 94 | 1014.8 |
| 20260905130704 | 74 | 120 | 0.0 | 0.0 | 0.00 | 0.15 | 0.00 | 94 | 1014.5 |
| 20260905125703 | 74 | 120 | 0.0 | 0.0 | 0.00 | 0.15 | 0.00 | 94 | 1014.2 |
| 20260905125203 | 73 | 120 | 0.0 | 0.0 | 0.00 | 0.15 | 0.00 | 94 | 1014.2 |
| 20260905124703 | 73 | 120 | 0.0 | 0.0 | 0.00 | 0.15 | 0.00 | 94 | 1014.2 |
| 20260905124204 | 73 | 120 | 0.0 | 0.0 | 0.00 | 0.15 | 0.00 | 94 | 1014.2 |
| 20260905123704 | 73 | 120 | 0.0 | 0.0 | 0.00 | 0.15 | 0.00 | 94 | 1014.0 |
| 20260905122204 | 73 | 120 | 0.0 | 0.0 | 0.00 | 0.15 | 0.00 | 94 | 1013.8 |
| 20260905121703 | 73 | 120 | 0.0 | 0.0 | 0.00 | 0.15 | 0.00 | 94 | 1013.7 |
| 20260905121204 | 73 | 120 | 0.0 | 0.0 | 0.00 | 0.15 | 0.00 | 94 | 1013.6 |
| 20260905120704 | 73 | 120 | 0.0 | 0.0 | 0.00 | 0.15 | 0.00 | 94 | 1013.5 |
| 20260905120204 | 73 | 120 | 0.0 | 0.0 | 0.00 | 0.15 | 0.00 | 95 | 1013.4 |
| 20260905115704 | 73 | 120 | 0.0 | 0.0 | 0.00 | 0.15 | 0.00 | 95 | 1013.4 |
| 20260905115204 | 73 | 120 | 0.0 | 0.0 | 0.00 | 0.15 | 0.00 | 95 | 1013.4 |
| 20260905114704 | 73 | 120 | 0.0 | 0.0 | 0.00 | 0.15 | 0.00 | 95 | 1013.3 |
| 20260905114204 | 73 | 120 | 0.0 | 0.0 | 0.00 | 0.15 | 0.00 | 95 | 1013.2 |
| 20260905113704 | 73 | 120 | 0.0 | 0.0 | 0.00 | 0.15 | 0.00 | 95 | 1013.1 |
| 20260905112703 | 73 | 120 | 0.0 | 0.0 | 0.00 | 0.15 | 0.00 | 95 | 1013.0 |
| 20260905112203 | 73 | 120 | 0.0 | 0.0 | 0.00 | 0.15 | 0.00 | 95 | 1013.0 |
| 20260905111703 | 73 | 120 | 0.0 | 0.0 | 0.00 | 0.15 | 0.00 | 95 | 1013.0 |
| 20260905111203 | 73 | 120 | 0.0 | 0.0 | 0.00 | 0.15 | 0.00 | 95 | 1012.8 |
| 20260905110703 | 73 | 120 | 0.0 | 0.0 | 0.00 | 0.15 | 0.00 | 94 | 1012.8 |
| 20260905110204 | 73 | 120 | 0.0 | 0.0 | 0.00 | 0.15 | 0.00 | 94 | 1012.8 |
| 20260905105704 | 73 | 120 | 0.0 | 0.0 | 0.00 | 0.15 | 0.00 | 94 | 1012.8 |
| 20260905105204 | 73 | 120 | 0.0 | 0.0 | 0.00 | 0.15 | 0.00 | 94 | 1012.7 |
| 20260905104704 | 73 | 120 | 0.0 | 0.0 | 0.00 | 0.15 | 0.00 | 94 | 1012.7 |
| 20260905104203 | 73 | 120 | 0.0 | 0.0 | 0.00 | 0.15 | 0.00 | 94 | 1012.7 |
| 20260905103704 | 73 | 120 | 0.0 | 0.0 | 0.00 | 0.15 | 0.00 | 94 | 1012.7 |
| 20260905103204 | 73 | 120 | 0.0 | 0.0 | 0.00 | 0.15 | 0.00 | 94 | 1012.7 |
| 20260905102704 | 73 | 120 | 0.0 | 0.0 | 0.00 | 0.15 | 0.00 | 94 | 1012.7 |
| 20260905102204 | 74 | 120 | 0.0 | 0.0 | 0.00 | 0.15 | 0.00 | 94 | 1012.6 |
| 20260905101704 | 74 | 120 | 0.0 | 0.0 | 0.00 | 0.15 | 0.00 | 94 | 1012.7 |
| 20260905101203 | 74 | 120 | 0.0 | 0.0 | 0.00 | 0.15 | 0.00 | 94 | 1012.7 |
| 20260905100703 | 74 | 120 | 0.0 | 0.0 | 0.00 | 0.15 | 0.00 | 94 | 1012.7 |
| 20260905100203 | 74 | 120 | 0.0 | 0.0 | 0.00 | 0.15 | 0.00 | 94 | 1012.8 |
| 20260905095204 | 74 | 120 | 0.0 | 0.0 | 0.00 | 0.15 | 0.00 | 94 | 1012.7 |
| 20260905094203 | 74 | 120 | 0.0 | 0.0 | 0.00 | 0.15 | 0.00 | 94 | 1012.6 |
| 20260905093704 | 74 | 120 | 0.0 | 0.0 | 0.00 | 0.15 | 0.00 | 94 | 1012.6 |
| 20260905092703 | 74 | 120 | 0.0 | 0.0 | 0.00 | 0.15 | 0.00 | 94 | 1012.6 |
| 20260905092203 | 74 | 120 | 0.0 | 0.0 | 0.00 | 0.15 | 0.00 | 94 | 1012.5 |
| 20260905091703 | 74 | 120 | 0.0 | 0.0 | 0.00 | 0.15 | 0.00 | 94 | 1012.5 |
| 20260905091203 | 74 | 120 | 0.0 | 0.0 | 0.00 | 0.15 | 0.00 | 94 | 1012.4 |
| 20260905090703 | 74 | 120 | 0.0 | 0.0 | 0.00 | 0.15 | 0.00 | 94 | 1012.4 |
| 20260905090204 | 74 | 120 | 0.0 | 0.0 | 0.00 | 0.15 | 0.00 | 94 | 1012.4 |
| 20260905085204 | 74 | 120 | 0.0 | 0.0 | 0.00 | 0.15 | 0.00 | 94 | 1012.3 |
| 20260905084703 | 74 | 120 | 0.0 | 0.0 | 0.00 | 0.15 | 0.00 | 94 | 1012.3 |
| 20260905084203 | 74 | 120 | 0.0 | 0.0 | 0.00 | 0.15 | 0.00 | 94 | 1012.3 |
| 20260905083703 | 74 | 120 | 0.0 | 0.0 | 0.00 | 0.15 | 0.00 | 94 | 1012.3 |
| 20260905083203 | 74 | 120 | 0.0 | 0.0 | 0.00 | 0.15 | 0.00 | 94 | 1012.2 |
| 20260905082704 | 74 | 120 | 0.0 | 0.0 | 0.00 | 0.15 | 0.00 | 94 | 1012.2 |
| 20260905081703 | 74 | 120 | 0.0 | 0.0 | 0.00 | 0.15 | 0.00 | 94 | 1012.2 |
| 20260905081203 | 74 | 120 | 0.0 | 0.0 | 0.00 | 0.15 | 0.00 | 94 | 1012.2 |
| 20260905080704 | 74 | 120 | 0.0 | 0.0 | 0.00 | 0.15 | 0.00 | 94 | 1012.3 |
| 20260905080204 | 74 | 120 | 0.0 | 0.0 | 0.00 | 0.15 | 0.00 | 94 | 1012.4 |
| 20260905075703 | 74 | 120 | 0.0 | 0.0 | 0.00 | 0.15 | 0.00 | 94 | 1012.4 |
| 20260905075204 | 74 | 120 | 0.0 | 0.0 | 0.00 | 0.15 | 0.00 | 94 | 1012.3 |
| 20260905074703 | 74 | 120 | 0.0 | 0.0 | 0.00 | 0.15 | 0.00 | 94 | 1012.4 |
| 20260905074203 | 74 | 120 | 0.0 | 0.0 | 0.00 | 0.15 | 0.00 | 94 | 1012.4 |
| 20260905073204 | 75 | 120 | 0.0 | 0.0 | 0.00 | 0.15 | 0.00 | 94 | 1012.4 |
| 20260905072703 | 75 | 120 | 0.0 | 0.0 | 0.00 | 0.15 | 0.00 | 94 | 1012.4 |
| 20260905071703 | 75 | 120 | 0.0 | 0.0 | 0.00 | 0.15 | 0.00 | 94 | 1012.4 |
| 20260905070703 | 75 | 120 | 0.0 | 0.0 | 0.00 | 0.15 | 0.00 | 94 | 1012.5 |
| 20260905065703 | 75 | 120 | 0.0 | 0.0 | 0.00 | 0.15 | 0.00 | 94 | 1012.5 |
| 20260905065203 | 75 | 120 | 0.0 | 0.0 | 0.00 | 0.15 | 0.00 | 94 | 1012.5 |
| 20260905064703 | 75 | 120 | 0.0 | 0.0 | 0.00 | 0.15 | 0.00 | 93 | 1012.4 |
| 20260905064204 | 75 | 120 | 0.0 | 0.0 | 0.00 | 0.15 | 0.00 | 93 | 1012.4 |
| 20260905063203 | 75 | 120 | 0.0 | 0.0 | 0.00 | 0.15 | 0.00 | 93 | 1012.6 |
| 20260905062703 | 75 | 120 | 0.0 | 0.0 | 0.00 | 0.15 | 0.00 | 93 | 1012.7 |
| 20260905061703 | 75 | 120 | 0.0 | 0.0 | 0.00 | 0.15 | 0.00 | 93 | 1012.7 |
| 20260905061204 | 75 | 120 | 0.0 | 0.0 | 0.00 | 0.15 | 0.00 | 93 | 1012.7 |
| 20260905060204 | 75 | 120 | 0.0 | 0.0 | 0.00 | 0.15 | 0.00 | 93 | 1012.8 |
| 20260905055703 | 75 | 120 | 0.0 | 0.0 | 0.00 | 0.15 | 0.00 | 93 | 1012.8 |
| 20260905055204 | 75 | 120 | 0.0 | 0.0 | 0.00 | 0.15 | 0.00 | 93 | 1012.8 |
| 20260905054703 | 75 | 120 | 0.0 | 0.0 | 0.00 | 0.15 | 0.00 | 93 | 1012.8 |
| 20260905054204 | 75 | 120 | 0.0 | 0.0 | 0.00 | 0.15 | 0.00 | 93 | 1012.8 |
| 20260905053703 | 75 | 120 | 0.0 | 0.0 | 0.00 | 0.15 | 0.00 | 93 | 1012.8 |
| 20260905053203 | 75 | 120 | 0.0 | 0.0 | 0.00 | 0.15 | 0.00 | 93 | 1012.9 |
| 20260905052704 | 75 | 120 | 0.0 | 0.0 | 0.00 | 0.15 | 0.00 | 93 | 1012.9 |
| 20260905052204 | 75 | 120 | 0.0 | 0.0 | 0.00 | 0.15 | 0.00 | 93 | 1012.9 |
| 20260905051704 | 75 | 120 | 0.0 | 0.0 | 0.00 | 0.15 | 0.00 | 92 | 1013.0 |
| 20260905051203 | 75 | 120 | 0.0 | 0.0 | 0.00 | 0.15 | 0.00 | 92 | 1012.9 |
| 20260905050704 | 76 | 120 | 0.0 | 0.0 | 0.00 | 0.15 | 0.00 | 92 | 1012.9 |
| 20260905050203 | 76 | 120 | 0.0 | 0.0 | 0.00 | 0.15 | 0.00 | 92 | 1012.9 |
| 20260905045204 | 76 | 120 | 0.0 | 0.0 | 0.00 | 0.15 | 0.15 | 92 | 1012.7 |
| 20260905044703 | 76 | 120 | 0.0 | 0.0 | 0.00 | 0.15 | 0.15 | 92 | 1012.6 |
| 20260905044204 | 76 | 120 | 0.0 | 0.0 | 0.00 | 0.15 | 0.15 | 92 | 1012.7 |
| 20260905043203 | 76 | 120 | 0.0 | 0.0 | 0.00 | 0.15 | 0.15 | 92 | 1012.8 |
| 20260905042703 | 76 | 120 | 0.0 | 0.0 | 0.00 | 0.15 | 0.15 | 92 | 1012.9 |
| 20260905042203 | 76 | 120 | 0.0 | 0.0 | 0.00 | 0.15 | 0.15 | 92 | 1012.9 |
| 20260905041203 | 76 | 120 | 0.0 | 0.0 | 0.00 | 0.15 | 0.15 | 91 | 1013.0 |
| 20260905040703 | 76 | 120 | 0.0 | 0.0 | 0.00 | 0.15 | 0.15 | 91 | 1012.9 |
| 20260905040203 | 76 | 120 | 0.0 | 0.0 | 0.00 | 0.15 | 0.15 | 91 | 1012.9 |
| 20260905035703 | 76 | 120 | 0.0 | 0.0 | 0.00 | 0.15 | 0.15 | 91 | 1012.9 |
| 20260905035204 | 76 | 120 | 0.0 | 0.0 | 0.01 | 0.15 | 0.15 | 91 | 1012.8 |
| 20260905034703 | 77 | 120 | 0.0 | 0.0 | 0.08 | 0.15 | 0.15 | 91 | 1012.8 |
| 20260905034204 | 77 | 120 | 0.0 | 0.0 | 0.10 | 0.15 | 0.15 | 90 | 1012.8 |
| 20260905033704 | 77 | 120 | 0.0 | 0.0 | 0.10 | 0.15 | 0.15 | 90 | 1012.9 |
| 20260905033203 | 77 | 120 | 0.0 | 0.0 | 0.10 | 0.15 | 0.15 | 90 | 1012.9 |
| 20260905032703 | 77 | 120 | 0.0 | 0.0 | 0.10 | 0.15 | 0.15 | 90 | 1013.0 |
| 20260905032204 | 77 | 120 | 0.0 | 0.0 | 0.10 | 0.15 | 0.15 | 90 | 1012.9 |
| 20260905031704 | 77 | 120 | 0.0 | 0.0 | 0.10 | 0.15 | 0.15 | 89 | 1013.0 |
| 20260905031204 | 77 | 120 | 0.0 | 0.0 | 0.10 | 0.15 | 0.15 | 89 | 1013.1 |
| 20260905030204 | 78 | 120 | 0.0 | 0.0 | 0.10 | 0.15 | 0.15 | 88 | 1013.1 |
| 20260905025203 | 79 | 120 | 0.0 | 0.0 | 0.09 | 0.14 | 0.14 | 89 | 1013.4 |
| 20260905024704 | 80 | 120 | 0.0 | 0.0 | 0.02 | 0.07 | 0.07 | 81 | 1014.0 |
| 20260905024203 | 80 | 120 | 0.0 | 0.0 | 0.00 | 0.05 | 0.05 | 78 | 1013.7 |
| 20260905023703 | 80 | 120 | 0.0 | 0.0 | 0.00 | 0.05 | 0.05 | 78 | 1013.4 |
| 20260905023203 | 80 | 120 | 0.0 | 0.0 | 0.00 | 0.05 | 0.05 | 78 | 1013.3 |
| 20260905022703 | 80 | 120 | 0.0 | 0.0 | 0.00 | 0.05 | 0.05 | 78 | 1013.3 |
| 20260905022204 | 80 | 120 | 0.0 | 0.0 | 0.00 | 0.05 | 0.05 | 78 | 1013.3 |
| 20260905021704 | 81 | 120 | 0.0 | 0.0 | 0.00 | 0.05 | 0.05 | 77 | 1013.3 |
| 20260905021203 | 81 | 120 | 0.0 | 0.0 | 0.00 | 0.05 | 0.05 | 76 | 1013.3 |
| 20260905020703 | 81 | 120 | 0.0 | 0.0 | 0.00 | 0.05 | 0.05 | 76 | 1013.2 |
| 20260905020204 | 81 | 120 | 0.0 | 0.0 | 0.00 | 0.05 | 0.05 | 77 | 1013.1 |
| 20260905015704 | 82 | 120 | 0.0 | 0.0 | 0.00 | 0.05 | 0.05 | 78 | 1013.1 |
| 20260905015204 | 82 | 120 | 0.0 | 0.0 | 0.00 | 0.05 | 0.05 | 79 | 1013.1 |
| 20260905014703 | 82 | 120 | 0.0 | 0.0 | 0.00 | 0.05 | 0.05 | 80 | 1013.1 |
| 20260905014204 | 82 | 120 | 0.0 | 0.0 | 0.00 | 0.05 | 0.05 | 80 | 1013.1 |
| 20260905013704 | 82 | 120 | 0.0 | 0.0 | 0.00 | 0.05 | 0.05 | 81 | 1013.0 |
| 20260905013204 | 82 | 120 | 0.0 | 0.0 | 0.00 | 0.05 | 0.05 | 81 | 1013.0 |
| 20260905012703 | 82 | 120 | 0.0 | 0.0 | 0.00 | 0.05 | 0.05 | 80 | 1012.9 |
| 20260905012205 | 82 | 120 | 0.0 | 0.0 | 0.00 | 0.05 | 0.05 | 80 | 1012.9 |
| 20260905011704 | 82 | 120 | 0.0 | 0.0 | 0.00 | 0.05 | 0.05 | 80 | 1012.7 |
| 20260905011204 | 82 | 120 | 0.0 | 0.0 | 0.00 | 0.05 | 0.05 | 80 | 1012.6 |
| 20260905010704 | 82 | 120 | 0.0 | 0.0 | 0.00 | 0.05 | 0.05 | 79 | 1012.4 |
| 20260905010205 | 83 | 120 | 0.0 | 0.0 | 0.00 | 0.05 | 0.05 | 78 | 1012.3 |
| 20260905005704 | 83 | 120 | 0.0 | 0.0 | 0.00 | 0.05 | 0.05 | 77 | 1012.1 |
| 20260905004704 | 84 | 120 | 0.0 | 0.0 | 0.00 | 0.05 | 0.05 | 74 | 1011.8 |
| 20260905004203 | 84 | 120 | 0.0 | 0.0 | 0.00 | 0.05 | 0.05 | 72 | 1011.6 |
| 20260905003204 | 84 | 120 | 0.0 | 0.0 | 0.00 | 0.05 | 0.05 | 71 | 1011.7 |
| 20260905002704 | 84 | 120 | 0.0 | 0.0 | 0.00 | 0.05 | 0.05 | 71 | 1011.8 |
| 20260905002203 | 85 | 120 | 0.0 | 0.0 | 0.00 | 0.05 | 0.05 | 71 | 1011.8 |
| 20260905001704 | 85 | 120 | 0.0 | 0.0 | 0.00 | 0.05 | 0.05 | 70 | 1011.8 |
| 20260905001204 | 85 | 120 | 0.0 | 0.0 | 0.00 | 0.05 | 0.05 | 69 | 1011.8 |
| 20260905000703 | 85 | 120 | 0.0 | 0.0 | 0.00 | 0.05 | 0.05 | 69 | 1011.7 |
| 20260905000204 | 86 | 120 | 0.0 | 0.0 | 0.00 | 0.05 | 0.05 | 68 | 1011.6 |
| 20260904235703 | 86 | 120 | 0.0 | 0.0 | 0.00 | 0.05 | 0.05 | 67 | 1011.7 |
| 20260904235204 | 86 | 120 | 0.0 | 0.0 | 0.00 | 0.05 | 0.05 | 66 | 1011.5 |
| 20260904234205 | 86 | 120 | 0.0 | 0.0 | 0.00 | 0.05 | 0.05 | 66 | 1010.9 |
| 20260904233704 | 86 | 120 | 0.0 | 0.0 | 0.00 | 0.05 | 0.05 | 66 | 1011.5 |
| 20260904233203 | 86 | 120 | 0.0 | 0.0 | 0.00 | 0.05 | 0.05 | 65 | 1011.3 |